This is the latest recevied weather packets stored in our database for station/object VA5EVR-13. If no packets are shown the sender has not sent any weather packets the latest 10 day(s).
| Time | Temp. | Humidity | Pressure | Rain* | Wind** | Luminosity | Snow |
|---|---|---|---|---|---|---|---|
| 1778054412 | -9.44° C | 72% | 88.8 hPa | 0 mm | - | - | - |
| 1778053812 | -9.44° C | 73% | 88.8 hPa | 0 mm | - | - | - |
| 1778053212 | -9.44° C | 73% | 88.8 hPa | 0 mm | - | - | - |
| 1778052611 | -8.89° C | 72% | 88.8 hPa | 0 mm | - | - | - |
| 1778052012 | -8.89° C | 69% | 88.8 hPa | 0 mm | - | - | - |
| 1778051412 | -8.89° C | 67% | 88.8 hPa | 0 mm | - | - | - |
| 1778050812 | -8.33° C | 65% | 88.8 hPa | 0 mm | - | - | - |
| 1778050212 | -8.33° C | 60% | 88.8 hPa | 0 mm | - | - | - |
| 1778049612 | -8.33° C | 59% | 88.8 hPa | 0 mm | - | - | - |
| 1778049011 | -7.78° C | 59% | 88.8 hPa | 0 mm | - | - | - |
| 1778048412 | -7.78° C | 59% | 88.8 hPa | 0 mm | - | - | - |
| 1778047813 | -7.78° C | 59% | 88.8 hPa | 0 mm | - | - | - |
| 1778047212 | -7.78° C | 58% | 88.8 hPa | 0 mm | - | - | - |
| 1778046612 | -7.78° C | 58% | 88.8 hPa | 0 mm | - | - | - |
| 1778046012 | -7.22° C | 58% | 88.8 hPa | 0 mm | - | - | - |
| 1778045411 | -7.22° C | 57% | 88.8 hPa | 0 mm | - | - | - |
| 1778044811 | -6.67° C | 55% | 88.8 hPa | 0 mm | - | - | - |
| 1778044212 | -6.11° C | 54% | 88.8 hPa | 0 mm | - | - | - |
| 1778043612 | -5.56° C | 54% | 88.8 hPa | 0 mm | - | - | - |
| 1778043012 | -4.44° C | 53% | 88.8 hPa | 0 mm | - | - | - |
| 1778041813 | -2.78° C | 50% | 88.8 hPa | 0 mm | - | - | - |
| 1778041212 | -2.22° C | 50% | 88.8 hPa | 0 mm | - | - | - |
| 1778040613 | -2.22° C | 50% | 88.8 hPa | 0 mm | - | - | - |
| 1778040012 | -2.22° C | 50% | 88.8 hPa | 0 mm | - | - | - |
| 1778039412 | -2.22° C | 50% | 88.8 hPa | 0 mm | - | - | - |
* Rain latest hour (hover to see other rain measurements)
** Current wind speed in m/s (hover to see current wind gust speed)